Time,TemperatureF,DewpointF,PressureIn,WindDirection,WindDirectionDegrees,WindSpeedMPH,WindSpeedGustMPH,Humidity,HourlyPrecipIn,Conditions,Clouds,dailyrainin,SoftwareType,DateUTC
2013-04-23 00:01:00,33.8,31.3,30.18,NNE,15,6.0,19.0,87,0.00,,,1.34,meteohub,2013-04-23 05:01:00,
2013-04-23 00:06:00,33.8,30.9,30.21,NNE,18,15.0,17.0,86,0.00,,,0.00,meteohub,2013-04-23 05:06:00,
2013-04-23 00:11:00,33.8,31.5,30.21,NE,52,8.0,17.0,87,0.00,,,0.00,meteohub,2013-04-23 05:11:00,
2013-04-23 00:16:00,33.8,31.3,30.21,North,353,11.0,16.0,87,0.00,,,0.00,meteohub,2013-04-23 05:16:00,
2013-04-23 00:21:00,33.8,31.3,30.21,NNE,19,15.0,16.0,87,0.00,,,0.00,meteohub,2013-04-23 05:21:00,
2013-04-23 00:26:00,33.6,31.1,30.21,North,7,10.0,24.0,87,0.00,,,0.00,meteohub,2013-04-23 05:26:00,
2013-04-23 00:31:00,33.6,30.7,30.18,NNE,23,12.0,24.0,86,0.00,,,0.00,meteohub,2013-04-23 05:31:00,
2013-04-23 00:36:00,33.6,30.7,30.18,NE,39,11.0,22.0,86,0.00,,,0.00,meteohub,2013-04-23 05:36:00,
2013-04-23 00:41:00,33.4,30.7,30.18,NNE,25,11.0,22.0,86,0.00,,,0.00,meteohub,2013-04-23 05:41:00,
2013-04-23 00:47:00,33.4,30.9,30.15,North,1,13.0,22.0,87,0.00,,,0.00,meteohub,2013-04-23 05:47:00,
2013-04-23 00:52:00,33.3,30.6,30.15,NNE,21,15.0,16.0,86,0.00,,,0.00,meteohub,2013-04-23 05:52:00,
2013-04-23 00:57:00,33.3,30.6,30.15,NNE,14,6.0,23.0,86,0.00,,,0.00,meteohub,2013-04-23 05:57:00,
2013-04-23 01:02:00,33.3,30.6,30.15,NNE,26,11.0,23.0,86,0.00,,,0.00,meteohub,2013-04-23 06:02:00,
2013-04-23 01:07:00,33.3,30.4,30.15,North,11,13.0,25.0,86,0.00,,,0.00,meteohub,2013-04-23 06:07:00,
2013-04-23 01:12:00,33.3,30.6,30.15,NNE,15,18.0,25.0,86,0.00,,,0.00,meteohub,2013-04-23 06:12:00,
2013-04-23 01:17:00,33.3,30.4,30.18,North,10,18.0,22.0,86,0.00,,,0.00,meteohub,2013-04-23 06:17:00,
2013-04-23 01:22:00,33.1,30.4,30.18,NE,36,11.0,20.0,86,0.00,,,0.00,meteohub,2013-04-23 06:22:00,
2013-04-23 01:27:00,33.1,30.2,30.18,NNE,29,11.0,20.0,86,0.00,,,0.00,meteohub,2013-04-23 06:27:00,
2013-04-23 01:32:00,33.1,30.0,30.18,North,0,11.0,20.0,85,0.00,,,0.00,meteohub,2013-04-23 06:32:00,
2013-04-23 01:37:00,33.1,30.0,30.18,NNW,343,15.0,20.0,85,0.00,,,0.00,meteohub,2013-04-23 06:37:00,
2013-04-23 01:42:00,33.1,30.0,30.18,North,1,12.0,21.0,85,0.00,,,0.00,meteohub,2013-04-23 06:42:00,
2013-04-23 01:47:00,33.1,30.0,30.18,North,353,11.0,21.0,85,0.00,,,0.00,meteohub,2013-04-23 06:47:00,
2013-04-23 01:52:00,32.9,29.8,30.18,NNE,29,13.0,21.0,85,0.00,,,0.00,meteohub,2013-04-23 06:52:00,
2013-04-23 01:57:00,32.7,29.8,30.18,NNE,29,12.0,20.0,85,0.00,,,0.00,meteohub,2013-04-23 06:57:00,
2013-04-23 02:02:00,32.7,29.5,30.18,NE,41,8.0,17.0,84,0.00,,,0.00,meteohub,2013-04-23 07:02:00,
2013-04-23 02:07:00,32.5,29.3,30.15,North,6,11.0,18.0,84,0.00,,,0.00,meteohub,2013-04-23 07:07:00,
2013-04-23 02:12:00,32.5,29.7,30.15,NNE,28,11.0,18.0,85,0.00,,,0.00,meteohub,2013-04-23 07:12:00,
2013-04-23 02:17:00,32.5,29.1,30.15,NNE,25,8.0,15.0,84,0.00,,,0.00,meteohub,2013-04-23 07:17:00,
2013-04-23 02:22:00,32.4,29.1,30.15,NNE,33,10.0,15.0,84,0.00,,,0.00,meteohub,2013-04-23 07:22:00,
2013-04-23 02:27:00,32.4,29.1,30.15,North,357,8.0,17.0,84,0.00,,,0.00,meteohub,2013-04-23 07:27:00,
2013-04-23 02:32:00,32.4,29.1,30.21,NNE,26,8.0,17.0,84,0.00,,,0.00,meteohub,2013-04-23 07:32:00,
2013-04-23 02:37:00,32.5,29.3,30.21,North,0,11.0,17.0,84,0.00,,,0.00,meteohub,2013-04-23 07:37:00,
2013-04-23 02:42:00,32.5,29.3,30.21,North,7,8.0,15.0,84,0.00,,,0.00,meteohub,2013-04-23 07:42:00,
2013-04-23 02:47:00,32.5,29.3,30.27,North,2,8.0,15.0,84,0.00,,,0.00,meteohub,2013-04-23 07:47:00,
2013-04-23 02:52:00,32.7,28.9,30.27,North,0,8.0,15.0,83,0.00,,,0.00,meteohub,2013-04-23 07:52:00,
2013-04-23 02:57:00,32.7,28.9,30.27,NE,37,8.0,15.0,83,0.00,,,0.00,meteohub,2013-04-23 07:57:00,
2013-04-23 03:02:00,32.5,28.9,30.21,NNE,29,12.0,15.0,83,0.00,,,0.00,meteohub,2013-04-23 08:02:00,
2013-04-23 03:07:00,32.4,28.8,30.21,NNE,20,8.0,15.0,83,0.00,,,0.00,meteohub,2013-04-23 08:07:00,
2013-04-23 03:12:00,32.2,28.6,30.21,NNE,20,15.0,15.0,83,0.00,,,0.00,meteohub,2013-04-23 08:12:00,
2013-04-23 03:17:00,32.2,28.6,30.21,NNE,27,8.0,17.0,83,0.00,,,0.00,meteohub,2013-04-23 08:17:00,
2013-04-23 03:22:00,32.2,28.6,30.21,North,7,14.0,17.0,83,0.00,,,0.00,meteohub,2013-04-23 08:22:00,
2013-04-23 03:27:00,32.2,28.6,30.21,NE,36,13.0,17.0,83,0.00,,,0.00,meteohub,2013-04-23 08:27:00,
2013-04-23 03:32:00,32.2,28.6,30.21,North,3,11.0,17.0,83,0.00,,,0.00,meteohub,2013-04-23 08:32:00,
2013-04-23 03:37:00,32.2,28.4,30.21,NNE,12,11.0,20.0,83,0.00,,,0.00,meteohub,2013-04-23 08:37:00,
2013-04-23 03:42:00,32.2,28.9,30.21,NNE,17,15.0,20.0,84,0.00,,,0.00,meteohub,2013-04-23 08:42:00,
2013-04-23 03:47:00,32.2,28.8,30.18,North,5,10.0,20.0,84,0.00,,,0.00,meteohub,2013-04-23 08:47:00,
2013-04-23 03:52:00,32.0,28.4,30.18,North,10,14.0,16.0,83,0.00,,,0.00,meteohub,2013-04-23 08:52:00,
2013-04-23 03:57:00,32.0,28.2,30.18,NNE,15,11.0,17.0,82,0.00,,,0.00,meteohub,2013-04-23 08:57:00,
2013-04-23 04:02:00,32.0,28.2,30.21,North,4,11.0,17.0,82,0.00,,,0.00,meteohub,2013-04-23 09:02:00,
2013-04-23 04:07:00,32.0,28.2,30.21,NNE,28,11.0,17.0,82,0.00,,,0.00,meteohub,2013-04-23 09:07:00,
2013-04-23 04:12:00,32.0,28.2,30.21,NNE,14,8.0,15.0,82,0.00,,,0.00,meteohub,2013-04-23 09:12:00,
2013-04-23 04:17:00,31.8,27.7,30.18,North,1,16.0,16.0,81,0.00,,,0.00,meteohub,2013-04-23 09:17:00,
2013-04-23 04:22:00,31.8,27.7,30.18,NNW,338,11.0,18.0,81,0.00,,,0.00,meteohub,2013-04-23 09:22:00,
2013-04-23 04:27:00,31.8,27.7,30.18,NW,324,13.0,18.0,81,0.00,,,0.00,meteohub,2013-04-23 09:27:00,
2013-04-23 04:32:00,31.8,27.5,30.21,NNE,24,11.0,17.0,80,0.00,,,0.00,meteohub,2013-04-23 09:32:00,
2013-04-23 04:37:00,31.8,27.7,30.21,NNE,12,11.0,18.0,81,0.00,,,0.00,meteohub,2013-04-23 09:37:00,
2013-04-23 04:42:00,31.8,27.7,30.21,North,357,9.0,18.0,81,0.00,,,0.00,meteohub,2013-04-23 09:42:00,
2013-04-23 04:47:00,31.8,27.3,30.18,NNE,22,13.0,18.0,80,0.00,,,0.00,meteohub,2013-04-23 09:47:00,
2013-04-23 04:52:00,31.8,27.3,30.18,NE,37,9.0,22.0,80,0.00,,,0.00,meteohub,2013-04-23 09:52:00,
2013-04-23 04:57:00,31.6,27.3,30.18,WNW,303,11.0,22.0,80,0.00,,,0.00,meteohub,2013-04-23 09:57:00,
2013-04-23 05:02:00,31.6,27.3,30.18,NE,39,8.0,17.0,80,0.00,,,0.00,meteohub,2013-04-23 10:02:00,
2013-04-23 05:07:00,31.6,27.3,30.18,North,11,20.0,20.0,80,0.00,,,0.00,meteohub,2013-04-23 10:07:00,
2013-04-23 05:12:00,31.5,27.1,30.18,NNE,12,19.0,22.0,80,0.00,,,0.00,meteohub,2013-04-23 10:12:00,
2013-04-23 05:17:00,31.3,27.3,30.18,North,357,8.0,22.0,80,0.00,,,0.00,meteohub,2013-04-23 10:17:00,
2013-04-23 05:22:00,31.3,27.1,30.15,North,357,10.0,22.0,80,0.00,,,0.00,meteohub,2013-04-23 10:22:00,
2013-04-23 05:27:00,31.3,27.1,30.15,NNE,25,12.0,19.0,80,0.00,,,0.00,meteohub,2013-04-23 10:27:00,
2013-04-23 05:32:00,31.3,27.1,30.15,North,357,16.0,18.0,80,0.00,,,0.00,meteohub,2013-04-23 10:32:00,
2013-04-23 05:37:00,31.3,26.8,30.15,North,0,8.0,22.0,79,0.00,,,0.00,meteohub,2013-04-23 10:37:00,
2013-04-23 05:42:00,31.1,26.6,30.15,North,11,13.0,23.0,79,0.00,,,0.00,meteohub,2013-04-23 10:42:00,
2013-04-23 05:47:00,31.1,26.6,30.15,NNE,19,13.0,23.0,79,0.00,,,0.00,meteohub,2013-04-23 10:47:00,
2013-04-23 05:52:00,31.1,26.4,30.15,North,3,8.0,17.0,79,0.00,,,0.00,meteohub,2013-04-23 10:52:00,
2013-04-23 05:57:00,31.1,26.6,30.15,North,357,15.0,17.0,79,0.00,,,0.00,meteohub,2013-04-23 10:57:00,
2013-04-23 06:02:00,31.1,26.4,30.15,NNW,345,11.0,17.0,79,0.00,,,0.00,meteohub,2013-04-23 11:02:00,
2013-04-23 06:07:00,31.1,26.4,30.15,North,0,11.0,18.0,79,0.00,,,0.00,meteohub,2013-04-23 11:07:00,
2013-04-23 06:12:00,31.1,26.4,30.15,NE,36,11.0,19.0,79,0.00,,,0.00,meteohub,2013-04-23 11:12:00,
2013-04-23 06:17:00,31.1,26.1,30.18,NNW,338,14.0,19.0,78,0.00,,,0.00,meteohub,2013-04-23 11:17:00,
2013-04-23 06:22:00,31.1,26.4,30.18,NNE,29,15.0,18.0,79,0.00,,,0.00,meteohub,2013-04-23 11:22:00,
2013-04-23 06:27:00,31.1,26.6,30.18,North,357,8.0,20.0,79,0.00,,,0.00,meteohub,2013-04-23 11:27:00,
2013-04-23 06:32:00,31.1,26.6,30.18,NNE,20,10.0,22.0,79,0.00,,,0.00,meteohub,2013-04-23 11:32:00,
2013-04-23 06:37:00,31.3,26.6,30.18,North,4,8.0,22.0,79,0.00,,,0.00,meteohub,2013-04-23 11:37:00,
2013-04-23 06:42:00,31.3,26.6,30.18,NNE,15,11.0,22.0,79,0.00,,,0.00,meteohub,2013-04-23 11:42:00,
2013-04-23 06:47:00,31.3,26.6,30.18,North,4,9.0,19.0,79,0.00,,,0.00,meteohub,2013-04-23 11:47:00,
2013-04-23 06:52:00,31.1,26.6,30.18,North,357,12.0,19.0,79,0.00,,,0.00,meteohub,2013-04-23 11:52:00,
2013-04-23 06:57:00,31.1,26.6,30.18,North,2,17.0,17.0,79,0.00,,,0.00,meteohub,2013-04-23 11:57:00,
2013-04-23 07:02:00,31.1,26.2,30.15,North,4,17.0,18.0,78,0.00,,,0.00,meteohub,2013-04-23 12:02:00,
2013-04-23 07:07:00,31.1,26.1,30.15,North,3,11.0,20.0,78,0.00,,,0.00,meteohub,2013-04-23 12:07:00,
2013-04-23 07:12:00,31.1,26.2,30.15,NNE,25,13.0,20.0,78,0.00,,,0.00,meteohub,2013-04-23 12:12:00,
2013-04-23 07:17:00,31.1,25.7,30.18,NE,36,13.0,20.0,77,0.00,,,0.00,meteohub,2013-04-23 12:17:00,
2013-04-23 07:22:00,30.9,25.7,30.18,North,10,12.0,20.0,77,0.00,,,0.00,meteohub,2013-04-23 12:22:00,
2013-04-23 07:27:00,30.9,26.1,30.18,NNE,18,10.0,20.0,78,0.00,,,0.00,meteohub,2013-04-23 12:27:00,
2013-04-23 07:32:00,30.9,25.7,30.18,NNE,24,11.0,20.0,77,0.00,,,0.00,meteohub,2013-04-23 12:32:00,
2013-04-23 07:37:00,30.9,25.9,30.18,NNE,22,8.0,20.0,77,0.00,,,0.00,meteohub,2013-04-23 12:37:00,
2013-04-23 07:42:00,31.1,25.9,30.18,NNE,14,11.0,17.0,77,0.00,,,0.00,meteohub,2013-04-23 12:42:00,
2013-04-23 07:47:00,31.1,25.7,30.18,North,5,9.0,17.0,76,0.00,,,0.00,meteohub,2013-04-23 12:47:00,
2013-04-23 07:52:00,31.1,25.7,30.18,NNE,13,8.0,17.0,76,0.00,,,0.00,meteohub,2013-04-23 12:52:00,
2013-04-23 07:57:00,31.1,25.7,30.18,NNE,25,16.0,20.0,76,0.00,,,0.00,meteohub,2013-04-23 12:57:00,
2013-04-23 08:02:00,31.1,25.9,30.18,NNE,14,10.0,20.0,76,0.00,,,0.00,meteohub,2013-04-23 13:02:00,
2013-04-23 08:07:00,31.3,26.2,30.18,NNE,31,6.0,18.0,77,0.00,,,0.00,meteohub,2013-04-23 13:07:00,
2013-04-23 08:12:00,31.3,26.1,30.18,North,357,15.0,18.0,76,0.00,,,0.00,meteohub,2013-04-23 13:12:00,
2013-04-23 08:17:00,31.5,26.2,30.18,North,353,11.0,18.0,76,0.00,,,0.00,meteohub,2013-04-23 13:17:00,
2013-04-23 08:22:00,31.6,25.5,30.18,North,353,13.0,18.0,74,0.00,,,0.00,meteohub,2013-04-23 13:22:00,
2013-04-23 08:27:00,31.8,25.7,30.18,NNE,29,8.0,18.0,74,0.00,,,0.00,meteohub,2013-04-23 13:27:00,
2013-04-23 08:32:00,31.8,25.9,30.18,North,353,15.0,18.0,74,0.00,,,0.00,meteohub,2013-04-23 13:32:00,
2013-04-23 08:37:00,31.8,25.0,30.18,NNE,22,17.0,18.0,72,0.00,,,0.00,meteohub,2013-04-23 13:37:00,
2013-04-23 08:42:00,31.8,25.2,30.18,North,353,11.0,17.0,72,0.00,,,0.00,meteohub,2013-04-23 13:42:00,
2013-04-23 08:47:00,31.8,24.6,30.18,NNE,22,8.0,17.0,71,0.00,,,0.00,meteohub,2013-04-23 13:47:00,
2013-04-23 08:52:00,31.8,24.6,30.18,NNE,13,13.0,17.0,71,0.00,,,0.00,meteohub,2013-04-23 13:52:00,
2013-04-23 08:57:00,31.6,24.6,30.18,NNE,19,13.0,18.0,71,0.00,,,0.00,meteohub,2013-04-23 13:57:00,
2013-04-23 09:02:00,31.6,24.6,30.21,North,3,15.0,19.0,70,0.00,,,0.00,meteohub,2013-04-23 14:02:00,
2013-04-23 09:07:00,31.8,24.6,30.21,North,4,11.0,19.0,70,0.00,,,0.00,meteohub,2013-04-23 14:07:00,
2013-04-23 09:12:00,32.0,25.2,30.21,NNE,21,8.0,18.0,71,0.00,,,0.00,meteohub,2013-04-23 14:12:00,
2013-04-23 09:17:00,32.0,24.8,30.21,NNE,18,15.0,17.0,70,0.00,,,0.00,meteohub,2013-04-23 14:17:00,
2013-04-23 09:22:00,32.0,25.0,30.21,NNE,25,8.0,17.0,70,0.00,,,0.00,meteohub,2013-04-23 14:22:00,
2013-04-23 09:27:00,32.2,25.2,30.21,NNE,25,11.0,17.0,70,0.00,,,0.00,meteohub,2013-04-23 14:27:00,
2013-04-23 09:32:00,32.4,24.8,30.21,NNE,16,12.0,15.0,69,0.00,,,0.00,meteohub,2013-04-23 14:32:00,
2013-04-23 09:37:00,32.4,24.6,30.21,NNE,14,8.0,22.0,68,0.00,,,0.00,meteohub,2013-04-23 14:37:00,
2013-04-23 09:42:00,32.4,24.1,30.21,North,7,13.0,22.0,67,0.00,,,0.00,meteohub,2013-04-23 14:42:00,
2013-04-23 09:47:00,32.2,24.3,30.21,NNE,31,11.0,22.0,67,0.00,,,0.00,meteohub,2013-04-23 14:47:00,
2013-04-23 09:52:00,32.4,24.3,30.21,North,8,10.0,17.0,67,0.00,,,0.00,meteohub,2013-04-23 14:52:00,
2013-04-23 09:57:00,32.7,25.0,30.21,NNE,30,13.0,17.0,68,0.00,,,0.00,meteohub,2013-04-23 14:57:00,
2013-04-23 10:02:00,33.1,24.8,30.18,NNE,14,11.0,17.0,67,0.00,,,0.00,meteohub,2013-04-23 15:02:00,
2013-04-23 10:07:00,33.1,23.9,30.18,NNE,26,15.0,17.0,65,0.00,,,0.00,meteohub,2013-04-23 15:07:00,
2013-04-23 10:12:00,33.1,24.8,30.18,North,7,13.0,17.0,66,0.00,,,0.00,meteohub,2013-04-23 15:12:00,
2013-04-23 10:18:00,33.1,24.3,30.18,NNE,31,13.0,17.0,65,0.00,,,0.00,meteohub,2013-04-23 15:18:00,
2013-04-23 10:23:00,32.9,23.5,30.18,North,353,9.0,16.0,64,0.00,,,0.00,meteohub,2013-04-23 15:23:00,
2013-04-23 10:28:00,32.7,23.0,30.18,NNE,18,15.0,17.0,63,0.00,,,0.00,meteohub,2013-04-23 15:28:00,
2013-04-23 10:33:00,32.5,23.5,30.18,NE,36,12.0,19.0,64,0.00,,,0.00,meteohub,2013-04-23 15:33:00,
2013-04-23 10:38:00,32.7,24.6,30.18,NNW,342,6.0,19.0,66,0.00,,,0.00,meteohub,2013-04-23 15:38:00,
2013-04-23 10:43:00,33.1,25.3,30.18,North,5,6.0,19.0,67,0.00,,,0.00,meteohub,2013-04-23 15:43:00,
2013-04-23 10:48:00,33.1,24.4,30.18,NNE,19,12.0,13.0,65,0.00,,,0.00,meteohub,2013-04-23 15:48:00,
2013-04-23 10:53:00,33.1,24.3,30.18,North,0,13.0,13.0,65,0.00,,,0.00,meteohub,2013-04-23 15:53:00,
2013-04-23 10:58:00,33.1,25.0,30.18,North,9,11.0,17.0,66,0.00,,,0.00,meteohub,2013-04-23 15:58:00,
2013-04-23 11:03:00,33.3,24.8,30.18,NNE,23,8.0,17.0,65,0.00,,,0.00,meteohub,2013-04-23 16:03:00,
2013-04-23 11:08:00,33.3,23.7,30.18,North,11,11.0,17.0,63,0.00,,,0.00,meteohub,2013-04-23 16:08:00,
2013-04-23 11:13:00,33.1,23.9,30.18,NNE,14,8.0,17.0,63,0.00,,,0.00,meteohub,2013-04-23 16:13:00,
2013-04-23 11:19:00,33.4,25.3,30.18,NE,40,9.0,17.0,65,0.00,,,0.00,meteohub,2013-04-23 16:19:00,
2013-04-23 11:24:00,33.8,24.8,30.18,North,1,8.0,17.0,63,0.00,,,0.00,meteohub,2013-04-23 16:24:00,
2013-04-23 11:29:00,34.0,24.6,30.18,NNE,28,12.0,15.0,62,0.00,,,0.00,meteohub,2013-04-23 16:29:00,
2013-04-23 11:34:00,34.2,25.3,30.18,North,0,6.0,15.0,63,0.00,,,0.00,meteohub,2013-04-23 16:34:00,
2013-04-23 11:39:00,34.3,24.6,30.18,NNE,26,9.0,15.0,61,0.00,,,0.00,meteohub,2013-04-23 16:39:00,
2013-04-23 11:44:00,34.5,25.3,30.18,NNE,23,11.0,15.0,62,0.00,,,0.00,meteohub,2013-04-23 16:44:00,
2013-04-23 11:49:00,34.7,24.8,30.18,NE,47,7.0,15.0,61,0.00,,,0.00,meteohub,2013-04-23 16:49:00,
2013-04-23 11:54:00,34.7,24.8,30.18,NNE,24,11.0,17.0,61,0.00,,,0.00,meteohub,2013-04-23 16:54:00,
2013-04-23 11:59:00,34.9,25.2,30.18,NNE,24,8.0,17.0,61,0.00,,,0.00,meteohub,2013-04-23 16:59:00,
2013-04-23 12:04:00,35.1,26.4,30.18,North,8,13.0,17.0,63,0.00,,,0.00,meteohub,2013-04-23 17:04:00,
2013-04-23 12:09:00,35.1,25.3,30.18,North,353,6.0,15.0,61,0.00,,,0.00,meteohub,2013-04-23 17:09:00,
2013-04-23 12:14:00,35.2,25.2,30.18,North,9,11.0,15.0,60,0.00,,,0.00,meteohub,2013-04-23 17:14:00,
2013-04-23 12:20:00,35.4,25.3,30.18,North,353,11.0,15.0,60,0.00,,,0.00,meteohub,2013-04-23 17:20:00,
2013-04-23 12:25:00,35.4,24.6,30.18,North,353,11.0,15.0,58,0.00,,,0.00,meteohub,2013-04-23 17:25:00,
2013-04-23 12:30:00,35.4,25.2,30.18,ENE,62,10.0,17.0,58,0.00,,,0.00,meteohub,2013-04-23 17:30:00,
2013-04-23 12:35:00,35.4,24.8,30.18,NW,323,14.0,17.0,57,0.00,,,0.00,meteohub,2013-04-23 17:35:00,
2013-04-23 12:40:00,35.2,24.3,30.18,NNE,20,11.0,17.0,56,0.00,,,0.00,meteohub,2013-04-23 17:40:00,
2013-04-23 12:45:00,35.6,24.8,30.18,North,357,7.0,17.0,56,0.00,,,0.00,meteohub,2013-04-23 17:45:00,
2013-04-23 12:50:00,36.0,25.2,30.18,NNW,348,13.0,17.0,56,0.00,,,0.00,meteohub,2013-04-23 17:50:00,
2013-04-23 12:56:00,36.3,26.4,30.18,NE,34,9.0,15.0,57,0.00,,,0.00,meteohub,2013-04-23 17:56:00,
2013-04-23 13:01:00,36.7,25.7,30.18,NNW,344,8.0,15.0,55,0.00,,,0.00,meteohub,2013-04-23 18:01:00,
2013-04-23 13:06:00,36.7,24.4,30.18,NNW,329,8.0,15.0,52,0.00,,,0.00,meteohub,2013-04-23 18:06:00,
2013-04-23 13:11:00,37.2,26.6,30.18,North,10,8.0,16.0,54,0.00,,,0.00,meteohub,2013-04-23 18:11:00,
2013-04-23 13:16:00,37.6,26.8,30.18,NNW,339,6.0,16.0,54,0.00,,,0.00,meteohub,2013-04-23 18:16:00,
2013-04-23 13:21:00,37.6,25.7,30.18,North,10,11.0,15.0,52,0.00,,,0.00,meteohub,2013-04-23 18:21:00,
2013-04-23 13:26:00,37.8,26.8,30.18,NNE,29,9.0,17.0,53,0.00,,,0.00,meteohub,2013-04-23 18:26:00,
2013-04-23 13:32:00,38.1,27.1,30.15,North,9,11.0,17.0,52,0.00,,,0.00,meteohub,2013-04-23 18:32:00,
2013-04-23 13:37:00,38.5,27.7,30.15,NNE,15,8.0,17.0,52,0.00,,,0.00,meteohub,2013-04-23 18:37:00,
2013-04-23 13:42:00,38.1,25.9,30.15,North,7,12.0,15.0,50,0.00,,,0.00,meteohub,2013-04-23 18:42:00,
2013-04-23 13:47:00,38.1,27.3,30.15,North,353,8.0,15.0,51,0.00,,,0.00,meteohub,2013-04-23 18:47:00,
2013-04-23 13:52:00,37.9,26.1,30.18,NE,38,8.0,15.0,50,0.00,,,0.00,meteohub,2013-04-23 18:52:00,
2013-04-23 13:57:00,38.1,25.7,30.18,NNW,331,6.0,15.0,49,0.00,,,0.00,meteohub,2013-04-23 18:57:00,
2013-04-23 14:02:00,38.5,26.2,30.15,North,357,10.0,15.0,49,0.00,,,0.00,meteohub,2013-04-23 19:02:00,
2013-04-23 14:07:00,38.7,27.0,30.15,North,357,8.0,15.0,49,0.00,,,0.00,meteohub,2013-04-23 19:07:00,
2013-04-23 14:12:00,39.0,27.0,30.15,NNE,25,13.0,13.0,49,0.00,,,0.00,meteohub,2013-04-23 19:12:00,
2013-04-23 14:17:00,39.2,27.5,30.15,NNE,33,14.0,14.0,49,0.00,,,0.00,meteohub,2013-04-23 19:17:00,
2013-04-23 14:22:00,39.2,27.0,30.15,North,2,11.0,15.0,48,0.00,,,0.00,meteohub,2013-04-23 19:22:00,
2013-04-23 14:27:00,39.4,28.0,30.15,North,11,8.0,20.0,49,0.00,,,0.00,meteohub,2013-04-23 19:27:00,
2013-04-23 14:32:00,39.7,27.9,30.15,NNW,327,9.0,20.0,48,0.00,,,0.00,meteohub,2013-04-23 19:32:00,
2013-04-23 14:37:00,39.6,26.6,30.15,NW,324,9.0,20.0,47,0.00,,,0.00,meteohub,2013-04-23 19:37:00,
2013-04-23 14:42:00,38.8,25.9,30.15,North,10,8.0,18.0,47,0.00,,,0.00,meteohub,2013-04-23 19:42:00,
2013-04-23 14:47:00,38.7,26.2,30.15,North,10,11.0,17.0,48,0.00,,,0.00,meteohub,2013-04-23 19:47:00,
2013-04-23 14:52:00,38.7,25.3,30.15,NNE,23,8.0,17.0,47,0.00,,,0.00,meteohub,2013-04-23 19:52:00,
2013-04-23 14:57:00,38.8,25.7,30.15,NNE,21,9.0,17.0,47,0.00,,,0.00,meteohub,2013-04-23 19:57:00,
2013-04-23 15:02:00,38.8,26.2,30.15,North,6,8.0,14.0,48,0.00,,,0.00,meteohub,2013-04-23 20:02:00,
2013-04-23 15:07:00,39.2,25.7,30.15,North,357,13.0,14.0,47,0.00,,,0.00,meteohub,2013-04-23 20:07:00,
2013-04-23 15:12:00,39.2,26.2,30.15,North,353,10.0,15.0,47,0.00,,,0.00,meteohub,2013-04-23 20:12:00,
2013-04-23 15:17:00,39.2,24.8,30.15,NNE,14,14.0,15.0,45,0.00,,,0.00,meteohub,2013-04-23 20:17:00,
2013-04-23 15:22:00,38.8,25.0,30.15,North,7,13.0,17.0,45,0.00,,,0.00,meteohub,2013-04-23 20:22:00,
2013-04-23 15:27:00,38.8,25.0,30.15,NNW,334,10.0,17.0,45,0.00,,,0.00,meteohub,2013-04-23 20:27:00,
2013-04-23 15:32:00,38.8,25.2,30.15,NNE,30,11.0,17.0,46,0.00,,,0.00,meteohub,2013-04-23 20:32:00,
2013-04-23 15:37:00,38.8,25.5,30.15,NNE,14,11.0,16.0,46,0.00,,,0.00,meteohub,2013-04-23 20:37:00,
2013-04-23 15:42:00,39.2,24.8,30.15,NE,56,11.0,14.0,45,0.00,,,0.00,meteohub,2013-04-23 20:42:00,
2013-04-23 15:48:00,39.2,25.3,30.15,NNW,348,8.0,16.0,46,0.00,,,0.00,meteohub,2013-04-23 20:48:00,
2013-04-23 15:53:00,39.2,25.2,30.15,NNE,24,15.0,16.0,46,0.00,,,0.00,meteohub,2013-04-23 20:53:00,
2013-04-23 15:58:00,39.2,24.8,30.15,North,357,15.0,16.0,46,0.00,,,0.00,meteohub,2013-04-23 20:58:00,
2013-04-23 16:03:00,39.2,25.3,30.15,NNE,31,10.0,15.0,47,0.00,,,0.00,meteohub,2013-04-23 21:03:00,
2013-04-23 16:08:00,39.2,25.7,30.15,NNE,19,6.0,15.0,48,0.00,,,0.00,meteohub,2013-04-23 21:08:00,
2013-04-23 16:13:00,39.4,25.7,30.15,NE,48,8.0,15.0,48,0.00,,,0.00,meteohub,2013-04-23 21:13:00,
2013-04-23 16:18:00,39.2,25.3,30.15,NNE,15,11.0,15.0,47,0.00,,,0.00,meteohub,2013-04-23 21:18:00,
2013-04-23 16:23:00,39.2,24.4,30.15,NNE,13,11.0,15.0,46,0.00,,,0.00,meteohub,2013-04-23 21:23:00,
2013-04-23 16:28:00,39.0,24.8,30.15,North,353,3.0,15.0,47,0.00,,,0.00,meteohub,2013-04-23 21:28:00,
2013-04-23 16:33:00,39.2,25.0,30.15,NNE,22,11.0,15.0,47,0.00,,,0.00,meteohub,2013-04-23 21:33:00,
2013-04-23 16:38:00,39.2,24.6,30.15,NNE,23,6.0,16.0,47,0.00,,,0.00,meteohub,2013-04-23 21:38:00,
2013-04-23 16:43:00,39.2,24.8,30.15,NNE,18,8.0,16.0,47,0.00,,,0.00,meteohub,2013-04-23 21:43:00,
2013-04-23 16:48:00,39.2,23.9,30.12,North,5,10.0,16.0,46,0.00,,,0.00,meteohub,2013-04-23 21:48:00,
2013-04-23 16:54:00,39.0,23.7,30.12,North,2,8.0,15.0,46,0.00,,,0.00,meteohub,2013-04-23 21:54:00,
2013-04-23 16:59:00,38.8,23.7,30.12,North,6,9.0,15.0,46,0.00,,,0.00,meteohub,2013-04-23 21:59:00,
2013-04-23 17:04:00,38.8,23.5,30.12,NNE,22,8.0,15.0,46,0.00,,,0.00,meteohub,2013-04-23 22:04:00,
2013-04-23 17:09:00,39.0,24.8,30.12,NW,318,10.0,15.0,47,0.00,,,0.00,meteohub,2013-04-23 22:09:00,
2013-04-23 17:14:00,39.2,24.3,30.12,North,357,11.0,15.0,46,0.00,,,0.00,meteohub,2013-04-23 22:14:00,
2013-04-23 17:19:00,39.0,24.1,30.12,NNE,30,8.0,15.0,46,0.00,,,0.00,meteohub,2013-04-23 22:19:00,
2013-04-23 17:24:00,38.8,23.9,30.12,NE,38,11.0,15.0,46,0.00,,,0.00,meteohub,2013-04-23 22:24:00,
2013-04-23 17:29:00,38.5,23.5,30.12,NNE,17,10.0,15.0,46,0.00,,,0.00,meteohub,2013-04-23 22:29:00,
2013-04-23 17:34:00,38.3,23.5,30.12,NNE,18,9.0,16.0,46,0.00,,,0.00,meteohub,2013-04-23 22:34:00,
2013-04-23 17:39:00,38.1,23.2,30.12,NNE,26,9.0,16.0,46,0.00,,,0.00,meteohub,2013-04-23 22:39:00,
2013-04-23 17:44:00,38.1,23.7,30.12,North,357,13.0,15.0,47,0.00,,,0.00,meteohub,2013-04-23 22:44:00,
2013-04-23 17:49:00,38.1,23.5,30.12,NNE,15,9.0,15.0,47,0.00,,,0.00,meteohub,2013-04-23 22:49:00,
2013-04-23 17:55:00,38.1,23.5,30.12,North,357,10.0,15.0,47,0.00,,,0.00,meteohub,2013-04-23 22:55:00,
2013-04-23 18:00:00,37.9,23.4,30.12,NNE,31,8.0,15.0,47,0.00,,,0.00,meteohub,2013-04-23 23:00:00,
2013-04-23 18:05:00,37.9,23.2,30.12,NNE,21,11.0,15.0,47,0.00,,,0.00,meteohub,2013-04-23 23:05:00,
2013-04-23 18:10:00,37.8,22.8,30.12,NNE,27,8.0,15.0,47,0.00,,,0.00,meteohub,2013-04-23 23:10:00,
2013-04-23 18:15:00,37.8,22.8,30.12,North,4,11.0,15.0,47,0.00,,,0.00,meteohub,2013-04-23 23:15:00,
2013-04-23 18:20:00,37.6,23.2,30.12,NNE,19,8.0,14.0,48,0.00,,,0.00,meteohub,2013-04-23 23:20:00,
2013-04-23 18:25:00,37.6,23.4,30.12,NNE,23,10.0,14.0,48,0.00,,,0.00,meteohub,2013-04-23 23:25:00,
2013-04-23 18:30:00,37.6,22.5,30.12,NNE,18,10.0,14.0,48,0.00,,,0.00,meteohub,2013-04-23 23:30:00,
2013-04-23 18:35:00,37.2,21.6,30.12,North,357,7.0,13.0,47,0.00,,,0.00,meteohub,2013-04-23 23:35:00,
2013-04-23 18:40:00,36.9,21.2,30.12,North,6,12.0,15.0,47,0.00,,,0.00,meteohub,2013-04-23 23:40:00,
2013-04-23 18:45:00,36.7,21.7,30.12,WNW,288,6.0,15.0,48,0.00,,,0.00,meteohub,2013-04-23 23:45:00,
2013-04-23 18:50:00,36.7,21.6,30.15,NE,46,11.0,15.0,48,0.00,,,0.00,meteohub,2013-04-23 23:50:00,
2013-04-23 18:56:00,36.7,21.4,30.15,NNW,327,9.0,15.0,48,0.00,,,0.00,meteohub,2013-04-23 23:56:00,
2013-04-23 19:01:00,36.7,21.7,30.15,North,0,6.0,15.0,49,0.00,,,0.00,meteohub,2013-04-24 00:01:00,
2013-04-23 19:06:00,36.7,21.7,30.15,NNE,19,8.0,15.0,49,0.00,,,0.00,meteohub,2013-04-24 00:06:00,
2013-04-23 19:11:00,36.5,21.6,30.15,North,11,6.0,15.0,49,0.00,,,0.00,meteohub,2013-04-24 00:11:00,
2013-04-23 19:16:00,36.3,21.6,30.15,North,3,8.0,13.0,49,0.00,,,0.00,meteohub,2013-04-24 00:16:00,
2013-04-23 19:21:00,36.3,21.7,30.15,NNE,29,12.0,12.0,50,0.00,,,0.00,meteohub,2013-04-24 00:21:00,
2013-04-23 19:26:00,36.3,21.9,30.15,NNE,15,5.0,13.0,50,0.00,,,0.00,meteohub,2013-04-24 00:26:00,
2013-04-23 19:31:00,36.3,22.3,30.15,NNW,336,3.0,13.0,50,0.00,,,0.00,meteohub,2013-04-24 00:31:00,
2013-04-23 19:36:00,36.3,22.5,30.15,NNE,21,6.0,13.0,50,0.00,,,0.00,meteohub,2013-04-24 00:36:00,
2013-04-23 19:41:00,36.3,21.6,30.15,NNE,32,6.0,11.0,49,0.00,,,0.00,meteohub,2013-04-24 00:41:00,
2013-04-23 19:46:00,36.1,21.9,30.15,NNE,12,8.0,10.0,50,0.00,,,0.00,meteohub,2013-04-24 00:46:00,
2013-04-23 19:51:00,36.1,21.9,30.15,North,6,10.0,11.0,50,0.00,,,0.00,meteohub,2013-04-24 00:51:00,
2013-04-23 19:56:00,36.1,21.9,30.15,NNE,17,8.0,13.0,50,0.00,,,0.00,meteohub,2013-04-24 00:56:00,
2013-04-23 20:02:00,36.0,21.7,30.15,North,11,8.0,13.0,50,0.00,,,0.00,meteohub,2013-04-24 01:02:00,
2013-04-23 20:07:00,36.0,21.7,30.15,North,0,6.0,13.0,50,0.00,,,0.00,meteohub,2013-04-24 01:07:00,
2013-04-23 20:12:00,35.8,21.4,30.15,North,0,11.0,13.0,50,0.00,,,0.00,meteohub,2013-04-24 01:12:00,
2013-04-23 20:17:00,35.8,21.2,30.15,NNE,33,6.0,15.0,50,0.00,,,0.00,meteohub,2013-04-24 01:17:00,
2013-04-23 20:22:00,35.6,21.0,30.15,North,0,6.0,15.0,50,0.00,,,0.00,meteohub,2013-04-24 01:22:00,
2013-04-23 20:27:00,35.6,21.0,30.15,North,353,11.0,15.0,51,0.00,,,0.00,meteohub,2013-04-24 01:27:00,
2013-04-23 20:32:00,35.4,20.5,30.15,North,11,6.0,15.0,50,0.00,,,0.00,meteohub,2013-04-24 01:32:00,
2013-04-23 20:37:00,35.2,20.8,30.15,North,11,11.0,15.0,51,0.00,,,0.00,meteohub,2013-04-24 01:37:00,
2013-04-23 20:42:00,35.1,20.1,30.15,North,9,5.0,15.0,50,0.00,,,0.00,meteohub,2013-04-24 01:42:00,
2013-04-23 20:47:00,35.1,20.1,30.15,North,4,5.0,11.0,50,0.00,,,0.00,meteohub,2013-04-24 01:47:00,
2013-04-23 20:52:00,34.9,19.9,30.15,North,6,6.0,11.0,50,0.00,,,0.00,meteohub,2013-04-24 01:52:00,
2013-04-23 20:57:00,34.7,20.3,30.15,North,2,11.0,11.0,51,0.00,,,0.00,meteohub,2013-04-24 01:57:00,
2013-04-23 21:02:00,34.5,20.1,30.15,NNE,22,6.0,11.0,51,0.00,,,0.00,meteohub,2013-04-24 02:02:00,
2013-04-23 21:07:00,34.5,20.3,30.15,North,3,6.0,11.0,52,0.00,,,0.00,meteohub,2013-04-24 02:07:00,
2013-04-23 21:12:00,34.3,20.3,30.15,North,357,6.0,11.0,52,0.00,,,0.00,meteohub,2013-04-24 02:12:00,
2013-04-23 21:17:00,34.2,20.5,30.18,North,3,5.0,8.0,53,0.00,,,0.00,meteohub,2013-04-24 02:17:00,
2013-04-23 21:22:00,34.0,20.3,30.18,North,357,8.0,8.0,53,0.00,,,0.00,meteohub,2013-04-24 02:22:00,
2013-04-23 21:27:00,33.8,20.1,30.18,NNE,17,6.0,8.0,53,0.00,,,0.00,meteohub,2013-04-24 02:27:00,
2013-04-23 21:32:00,33.6,20.5,30.18,NNE,18,5.0,8.0,54,0.00,,,0.00,meteohub,2013-04-24 02:32:00,
2013-04-23 21:37:00,33.4,20.3,30.18,North,10,4.0,8.0,54,0.00,,,0.00,meteohub,2013-04-24 02:37:00,
2013-04-23 21:43:00,33.3,20.1,30.18,North,357,4.0,8.0,54,0.00,,,0.00,meteohub,2013-04-24 02:43:00,
2013-04-23 21:48:00,33.3,20.5,30.18,North,6,4.0,8.0,55,0.00,,,0.00,meteohub,2013-04-24 02:48:00,
2013-04-23 21:53:00,33.1,20.5,30.18,North,6,0.0,8.0,55,0.00,,,0.00,meteohub,2013-04-24 02:53:00,
2013-04-23 21:59:00,33.1,21.0,30.18,North,6,0.0,5.0,56,0.00,,,0.00,meteohub,2013-04-24 02:59:00,
2013-04-23 22:04:00,32.7,20.8,30.18,North,6,0.0,5.0,56,0.00,,,0.00,meteohub,2013-04-24 03:04:00,
2013-04-23 22:09:00,32.7,20.7,30.18,North,6,0.0,3.0,56,0.00,,,0.00,meteohub,2013-04-24 03:09:00,
2013-04-23 22:14:00,32.5,20.5,30.18,North,7,3.0,0.0,56,0.00,,,0.00,meteohub,2013-04-24 03:14:00,
2013-04-23 22:20:00,32.4,20.8,30.18,North,6,0.0,0.0,57,0.00,,,0.00,meteohub,2013-04-24 03:20:00,
2013-04-23 22:25:00,32.4,20.7,30.18,North,6,0.0,4.0,57,0.00,,,0.00,meteohub,2013-04-24 03:25:00,
2013-04-23 22:30:00,32.4,20.7,30.18,North,6,0.0,3.0,57,0.00,,,0.00,meteohub,2013-04-24 03:30:00,
2013-04-23 22:35:00,32.4,21.0,30.18,North,7,4.0,4.0,58,0.00,,,0.00,meteohub,2013-04-24 03:35:00,
2013-04-23 22:40:00,32.4,20.8,30.18,North,7,3.0,4.0,58,0.00,,,0.00,meteohub,2013-04-24 03:40:00,
2013-04-23 22:46:00,32.4,21.4,30.18,North,7,2.0,4.0,59,0.00,,,0.00,meteohub,2013-04-24 03:46:00,
2013-04-23 22:52:00,32.4,21.7,30.18,North,6,0.0,4.0,60,0.00,,,0.00,meteohub,2013-04-24 03:52:00,
2013-04-23 22:57:00,32.2,21.9,30.18,North,6,0.0,4.0,61,0.00,,,0.00,meteohub,2013-04-24 03:57:00,
2013-04-23 23:01:00,32.2,21.7,30.18,North,6,0.0,4.0,61,0.00,,,0.00,meteohub,2013-04-24 04:01:00,
2013-04-23 23:02:00,32.2,21.7,30.18,North,6,3.0,4.0,61,0.00,,,0.00,meteohub,2013-04-24 04:02:00,
2013-04-23 23:03:00,32.2,21.7,30.18,North,6,3.0,4.0,61,0.00,,,0.00,meteohub,2013-04-24 04:03:00,
2013-04-23 23:04:00,32.2,21.7,30.18,North,6,3.0,4.0,61,0.00,,,0.00,meteohub,2013-04-24 04:04:00,
2013-04-23 23:09:00,32.0,22.1,30.18,North,7,0.0,4.0,62,0.00,,,0.00,meteohub,2013-04-24 04:09:00,
2013-04-23 23:14:00,32.0,22.5,30.18,North,6,3.0,4.0,63,0.00,,,0.00,meteohub,2013-04-24 04:14:00,
2013-04-23 23:19:00,32.0,22.5,30.18,North,6,0.0,4.0,63,0.00,,,0.00,meteohub,2013-04-24 04:19:00,
2013-04-23 23:24:00,31.8,22.8,30.18,North,6,0.0,4.0,64,0.00,,,0.00,meteohub,2013-04-24 04:24:00,
2013-04-23 23:29:00,31.8,22.8,30.18,WNW,297,3.0,4.0,64,0.00,,,0.00,meteohub,2013-04-24 04:29:00,
2013-04-23 23:34:00,31.6,23.2,30.18,NW,320,4.0,5.0,65,0.00,,,0.00,meteohub,2013-04-24 04:34:00,
2013-04-23 23:39:00,31.6,23.0,30.18,NW,322,0.0,5.0,65,0.00,,,0.00,meteohub,2013-04-24 04:39:00,
2013-04-23 23:44:00,31.5,22.8,30.18,WNW,301,0.0,4.0,65,0.00,,,0.00,meteohub,2013-04-24 04:44:00,
2013-04-23 23:50:00,31.5,23.2,30.18,WNW,301,3.0,5.0,66,0.00,,,0.00,meteohub,2013-04-24 04:50:00,
2013-04-23 23:55:00,31.3,23.5,30.18,WNW,287,2.0,6.0,67,0.00,,,0.00,meteohub,2013-04-24 04:55:00,